Zurück zum Katalog

COSMOS 2251 DEB

AktivLEO
NORAD 33928·DEBRIS·🇷🇺 Russia

Gestartet Jun 16, 1993 von Plesetsk Cosmodrome

Loading…

Nächste Überflüge (nächste 24 Stunden)

TLE

AktuellSource: Space-Track

Epoche: Sep 14, 2026, 08:35 UTC

1 33928U 93036EH  26257.35792528  .00000456  00000-0  12813-3 0  9992
2 33928  73.9224 253.3931 0058974 129.3793 231.2611 14.47898519926332

Verfolge COSMOS 2251 DEB in Echtzeit mit AllMySat

Download on the App Store